Weather History for Gallup, NM

Change the Weather History Date:

Saturday, January 12, 2013

  Actual Average Record
Temperature  
Mean Temperature 8 °F -  
Max Temperature 24 °F 44 °F 61 °F (2011)
Min Temperature -9 °F 13 °F -12 °F (1977)
Degree Days  
Heating Degree Days 58    
Moisture  
Dew Point -5 °F    
Average Humidity 59    
Maximum Humidity 69    
Minimum Humidity 28    
Precipitation  
Precipitation 0.00 in - - ()
Sea Level Pressure  
Sea Level Pressure 30.26 in    
Wind  
Wind Speed 1 mph (SW)    
Max Wind Speed 13 mph    
Max Gust Speed -    
Visibility 9 miles    
Events Snow    
Averages and records for this station are not official NWS values.
T = Trace of Precipitation, MM = Missing Value Source: NWS Daily Summary

Daily Weather History Graph

Daily Weather History Graph

Search for Another Location

Airport:

Trip Planner

Search our weather history database for the weather conditions in past years. The results will help you decide how hot, cold, wet, or windy it might be!

Date:

Astronomy

Jan. 12, 2013 Rise Set
Actual Time 7:24 AM MST 5:23 PM MST
Civil Twilight 6:56 AM MST 5:50 PM MST
Nautical Twilight 6:25 AM MST 6:22 PM MST
Astronomical Twilight 5:54 AM MST 6:53 PM MST
Moon 7:49 AM MST (1/12) 6:51 PM MST (1/12)
Length of Visible Light 10h 54m
Length of Day
9h 58m
New Moon, 1% of the Moon is Illuminated
Jan 12
New Moon
Jan 18
First Quarter
Jan 26
Full
Feb 3
Last Quarter
Feb 10
New

Hourly Weather History & Observations

Time (MST) Temp. Windchill Dew Point Humidity Pressure Visibility Wind Dir Wind Speed Gust Speed Precip Events Conditions
12:53 AM -0.0 °F - -8.0 °F 69% 30.16 in 10.0 mi Calm Calm - N/A   Clear
1:53 AM -2.0 °F - -11.0 °F 66% 30.18 in 10.0 mi Calm Calm - N/A   Clear
2:53 AM -6.0 °F - -14.1 °F 68% 30.22 in 10.0 mi Calm Calm - N/A   Clear
3:53 AM -2.9 °F - -11.0 °F 68% 30.18 in 10.0 mi Calm Calm - N/A   Partly Cloudy
4:53 AM -6.0 °F - -15.0 °F 65% 30.21 in 10.0 mi Calm Calm - N/A   Mostly Cloudy
5:53 AM -9.9 °F -19.2 °F -18.0 °F 68% 30.32 in 10.0 mi East 3.5 mph - N/A   Clear
6:53 AM -7.1 °F - -15.0 °F 68% 30.40 in 10.0 mi Calm Calm - N/A   Clear
7:53 AM -9.0 °F - -17.0 °F 68% 30.44 in 10.0 mi Calm Calm - N/A   Clear
8:53 AM 1.9 °F - -8.0 °F 63% 30.44 in 10.0 mi Calm Calm - N/A   Clear
9:53 AM 8.1 °F - -5.1 °F 55% 30.36 in 10.0 mi Calm Calm - N/A   Clear
10:53 AM 12.0 °F - -0.9 °F 56% 30.33 in 10.0 mi Calm Calm - N/A   Clear
11:53 AM 19.9 °F - 1.9 °F 46% 30.24 in 10.0 mi Calm Calm - N/A   Clear
12:53 PM 24.1 °F 18.2 °F -5.1 °F 28% 30.18 in 10.0 mi West 4.6 mph - N/A   Mostly Cloudy
1:53 PM 23.0 °F 11.1 °F 6.1 °F 48% 30.20 in 8.0 mi WSW 12.7 mph - 0.00 in Snow Light Snow
2:53 PM 21.9 °F 11.0 °F 6.1 °F 51% 30.26 in 4.0 mi SW 10.4 mph - 0.00 in Snow Light Snow
3:18 PM 21.2 °F 13.6 °F 6.8 °F 54% 29.86 in 1.8 mi SW 5.8 mph - 0.00 in Snow Light Snow
3:27 PM 21.2 °F 12.6 °F 6.8 °F 54% 29.86 in 3.0 mi SSW 6.9 mph - 0.00 in Snow Light Snow
3:53 PM 21.9 °F 17.2 °F 6.1 °F 51% 30.23 in 10.0 mi South 3.5 mph - 0.00 in   Overcast
4:53 PM 21.9 °F - 1.9 °F 42% 30.27 in 10.0 mi Calm Calm - 0.00 in   Overcast
6:53 PM 16.0 °F - 1.0 °F 52% 30.34 in 10.0 mi Calm Calm - N/A   Clear
7:53 PM 12.0 °F - 1.0 °F 61% 30.40 in 10.0 mi Calm Calm - N/A   Overcast
8:53 PM 3.9 °F - -5.1 °F 66% 30.40 in 10.0 mi Calm Calm - N/A   Partly Cloudy
9:53 PM 1.0 °F - -7.1 °F 69% 30.38 in 10.0 mi Calm Calm - N/A   Clear
10:53 PM -2.9 °F - -11.0 °F 68% 30.39 in 10.0 mi Calm Calm - N/A   Clear
11:53 PM -2.9 °F - -11.9 °F 65% 30.33 in 10.0 mi Calm Calm - N/A   Scattered Clouds